Time,TemperatureF,DewpointF,PressureIn,WindDirection,WindDirectionDegrees,WindSpeedMPH,WindSpeedGustMPH,Humidity,HourlyPrecipIn,Conditions,Clouds,dailyrainin,SoftwareType,DateUTC
2013-09-29 00:13:00,66.0,57.0,30.04,SSW,201,1.0,5.0,74,0.00,,,0.00,,2013-09-29 05:13:00,
2013-09-29 00:22:00,66.0,57.0,30.04,South,174,0.0,0.0,74,0.00,,,0.00,,2013-09-29 05:22:00,
2013-09-29 00:53:00,66.0,58.0,30.05,SSW,194,0.0,0.0,76,0.00,,,0.00,,2013-09-29 05:53:00,
2013-09-29 01:12:00,66.0,58.0,30.05,SSW,202,0.0,0.0,76,0.00,,,0.00,,2013-09-29 06:12:00,
2013-09-29 01:22:00,66.0,58.0,30.04,South,170,0.0,0.0,76,0.00,,,0.00,,2013-09-29 06:22:00,
2013-09-29 01:42:00,67.0,59.0,30.04,South,187,0.0,0.0,76,0.00,,,0.00,,2013-09-29 06:42:00,
2013-09-29 01:52:00,66.0,58.0,30.04,SE,142,0.0,0.0,76,0.00,,,0.00,,2013-09-29 06:52:00,
2013-09-29 02:11:00,67.0,59.0,30.03,South,176,0.0,0.0,76,0.00,,,0.00,,2013-09-29 07:11:00,
2013-09-29 02:22:00,67.0,59.0,30.04,SSW,211,0.0,0.0,76,0.00,,,0.00,,2013-09-29 07:22:00,
2013-09-29 02:43:00,67.0,60.0,30.03,SSE,160,0.0,0.0,77,0.00,,,0.00,,2013-09-29 07:43:00,
2013-09-29 02:52:00,67.0,60.0,30.03,South,186,0.0,0.0,77,0.00,,,0.00,,2013-09-29 07:52:00,
2013-09-29 03:12:00,67.0,60.0,30.03,SSE,167,0.0,0.0,77,0.00,,,0.00,,2013-09-29 08:12:00,
2013-09-29 03:22:00,67.0,60.0,30.02,South,185,0.0,0.0,78,0.00,,,0.00,,2013-09-29 08:22:00,
2013-09-29 03:42:00,67.0,60.0,30.03,SSW,209,0.0,0.0,78,0.00,,,0.00,,2013-09-29 08:42:00,
2013-09-29 03:52:00,66.0,60.0,30.03,SSW,202,0.0,0.0,80,0.00,,,0.00,,2013-09-29 08:52:00,
2013-09-29 04:11:00,65.0,60.0,30.03,SW,228,0.0,0.0,83,0.00,,,0.00,,2013-09-29 09:11:00,
2013-09-29 04:22:00,65.0,60.0,30.03,SW,227,0.0,0.0,84,0.00,,,0.00,,2013-09-29 09:22:00,
2013-09-29 04:43:00,65.0,60.0,30.03,SW,225,0.0,0.0,85,0.00,,,0.00,,2013-09-29 09:43:00,
2013-09-29 04:53:00,65.0,60.0,30.03,SW,225,0.0,0.0,85,0.01,,,0.01,,2013-09-29 09:53:00,
2013-09-29 05:12:00,64.0,60.0,30.03,SW,225,0.0,0.0,87,0.02,,,0.02,,2013-09-29 10:12:00,
2013-09-29 05:23:00,64.0,61.0,30.03,SW,225,0.0,0.0,90,0.02,,,0.02,,2013-09-29 10:23:00,
2013-09-29 05:43:00,63.0,61.0,30.03,SW,225,0.0,0.0,92,0.02,,,0.02,,2013-09-29 10:43:00,
2013-09-29 05:53:00,63.0,61.0,30.04,North,355,0.0,0.0,93,0.03,,,0.04,,2013-09-29 10:53:00,
2013-09-29 06:12:00,62.0,60.0,30.05,West,266,0.0,0.0,93,0.16,,,0.18,,2013-09-29 11:12:00,
2013-09-29 06:22:00,62.0,60.0,30.04,SSW,205,0.0,0.0,94,0.33,,,0.35,,2013-09-29 11:22:00,
2013-09-29 06:52:00,62.0,61.0,30.05,SW,218,0.0,0.0,95,0.47,,,0.51,,2013-09-29 11:52:00,
2013-09-29 07:12:00,62.0,61.0,30.05,SE,142,0.0,0.0,96,0.35,,,0.54,,2013-09-29 12:12:00,
2013-09-29 07:21:00,62.0,61.0,30.05,SSE,159,0.0,0.0,96,0.20,,,0.55,,2013-09-29 12:21:00,
2013-09-29 07:52:00,62.0,61.0,30.05,SSW,203,0.0,0.0,97,0.10,,,0.62,,2013-09-29 12:52:00,
2013-09-29 08:11:00,62.0,61.0,30.04,South,187,0.0,0.0,97,0.11,,,0.65,,2013-09-29 13:11:00,
2013-09-29 08:22:00,62.0,61.0,30.04,South,183,0.0,0.0,97,0.11,,,0.66,,2013-09-29 13:22:00,
2013-09-29 08:53:00,62.0,61.0,30.05,South,182,0.0,0.0,97,0.05,,,0.67,,2013-09-29 13:53:00,
2013-09-29 09:12:00,62.0,61.0,30.05,South,181,0.0,0.0,97,0.02,,,0.67,,2013-09-29 14:12:00,
2013-09-29 09:21:00,63.0,62.0,30.05,South,174,0.0,0.0,97,0.01,,,0.67,,2013-09-29 14:21:00,
2013-09-29 09:43:00,63.0,62.0,30.05,SSE,167,0.0,10.0,97,0.00,,,0.67,,2013-09-29 14:43:00,
2013-09-29 09:52:00,63.0,62.0,30.05,South,180,0.0,5.0,97,0.00,,,0.67,,2013-09-29 14:52:00,
2013-09-29 10:12:00,63.0,62.0,30.06,South,183,0.0,5.0,97,0.00,,,0.67,,2013-09-29 15:12:00,
2013-09-29 10:22:00,63.0,62.0,30.06,South,191,0.0,6.0,97,0.00,,,0.67,,2013-09-29 15:22:00,
2013-09-29 10:45:00,63.0,62.0,30.06,South,177,0.0,7.0,97,0.00,,,0.67,,2013-09-29 15:45:00,
2013-09-29 10:55:00,63.0,62.0,30.06,South,190,6.0,9.0,97,0.00,,,0.67,,2013-09-29 15:55:00,
2013-09-29 11:13:00,63.0,62.0,30.06,SSW,211,4.0,9.0,97,0.00,,,0.67,,2013-09-29 16:13:00,
2013-09-29 11:24:00,63.0,62.0,30.06,South,188,0.0,5.0,97,0.00,,,0.67,,2013-09-29 16:24:00,
2013-09-29 11:44:00,63.0,62.0,30.05,SSE,163,0.0,0.0,97,0.00,,,0.67,,2013-09-29 16:44:00,
2013-09-29 11:54:00,63.0,62.0,30.05,SSW,193,0.0,0.0,97,0.00,,,0.67,,2013-09-29 16:54:00,
2013-09-29 12:12:00,64.0,63.0,30.05,SSW,192,0.0,1.0,97,0.00,,,0.67,,2013-09-29 17:12:00,
2013-09-29 12:24:00,64.0,63.0,30.05,South,187,6.0,8.0,97,0.00,,,0.67,,2013-09-29 17:24:00,
2013-09-29 12:43:00,64.0,63.0,30.05,SSW,202,0.0,4.0,97,0.00,,,0.67,,2013-09-29 17:43:00,
2013-09-29 12:52:00,64.0,63.0,30.05,SSW,193,0.0,0.0,97,0.00,,,0.67,,2013-09-29 17:52:00,
2013-09-29 13:13:00,64.0,63.0,30.04,SSW,199,0.0,5.0,97,0.00,,,0.67,,2013-09-29 18:13:00,
2013-09-29 13:22:00,64.0,63.0,30.04,SSW,213,0.0,1.0,97,0.01,,,0.68,,2013-09-29 18:22:00,
2013-09-29 13:42:00,64.0,63.0,30.03,SSW,204,0.0,0.0,97,0.01,,,0.68,,2013-09-29 18:42:00,
2013-09-29 13:52:00,64.0,63.0,30.02,SSW,209,0.0,1.0,97,0.01,,,0.68,,2013-09-29 18:52:00,
2013-09-29 14:11:00,64.0,63.0,30.02,South,186,0.0,8.0,97,0.01,,,0.68,,2013-09-29 19:11:00,
2013-09-29 14:22:00,64.0,63.0,30.01,SSW,207,0.0,0.0,97,0.00,,,0.68,,2013-09-29 19:22:00,
2013-09-29 14:42:00,64.0,63.0,30.01,South,188,0.0,1.0,97,0.00,,,0.68,,2013-09-29 19:42:00,
2013-09-29 14:52:00,64.0,63.0,30.01,South,188,0.0,0.0,97,0.00,,,0.68,,2013-09-29 19:52:00,
2013-09-29 15:12:00,64.0,63.0,30.01,West,279,0.0,0.0,97,0.00,,,0.68,,2013-09-29 20:12:00,
2013-09-29 15:22:00,63.0,62.0,30.01,NNW,337,0.0,0.0,97,0.00,,,0.68,,2013-09-29 20:22:00,
2013-09-29 15:42:00,63.0,62.0,30.01,NW,321,0.0,2.0,97,0.01,,,0.69,,2013-09-29 20:42:00,
2013-09-29 15:52:00,63.0,62.0,30.01,NNW,333,0.0,0.0,98,0.01,,,0.69,,2013-09-29 20:52:00,
2013-09-29 16:11:00,63.0,62.0,30.01,NNW,334,0.0,0.0,98,0.01,,,0.69,,2013-09-29 21:11:00,
2013-09-29 16:21:00,63.0,62.0,30.01,NNW,333,0.0,0.0,98,0.01,,,0.69,,2013-09-29 21:21:00,
2013-09-29 16:44:00,63.0,62.0,30.01,NNW,343,0.0,0.0,98,0.00,,,0.69,,2013-09-29 21:44:00,
2013-09-29 16:54:00,63.0,62.0,30.01,NNW,343,0.0,0.0,98,0.00,,,0.69,,2013-09-29 21:54:00,
2013-09-29 17:14:00,63.0,62.0,30.01,NNW,343,0.0,0.0,98,0.00,,,0.69,,2013-09-29 22:14:00,
2013-09-29 17:24:00,63.0,62.0,30.01,NNW,343,0.0,0.0,98,0.00,,,0.69,,2013-09-29 22:24:00,
2013-09-29 17:53:00,63.0,62.0,30.01,NNW,343,0.0,0.0,98,0.01,,,0.70,,2013-09-29 22:53:00,
2013-09-29 18:12:00,63.0,62.0,30.01,SSE,165,0.0,0.0,98,0.01,,,0.70,,2013-09-29 23:12:00,
2013-09-29 18:23:00,64.0,63.0,30.01,SSW,199,0.0,0.0,98,0.01,,,0.70,,2013-09-29 23:23:00,
2013-09-29 18:43:00,63.0,62.0,30.01,SSW,194,0.0,0.0,98,0.01,,,0.71,,2013-09-29 23:43:00,
2013-09-29 18:52:00,63.0,62.0,30.01,SSW,194,0.0,0.0,98,0.01,,,0.71,,2013-09-29 23:52:00,
2013-09-29 19:11:00,63.0,62.0,30.01,SSW,208,0.0,0.0,98,0.01,,,0.71,,2013-09-30 00:11:00,
2013-09-29 19:22:00,63.0,62.0,30.01,South,180,0.0,0.0,98,0.01,,,0.71,,2013-09-30 00:22:00,
2013-09-29 19:42:00,63.0,62.0,30.01,South,185,0.0,0.0,98,0.01,,,0.71,,2013-09-30 00:42:00,
2013-09-29 19:52:00,63.0,62.0,30.01,South,186,0.0,0.0,98,0.00,,,0.71,,2013-09-30 00:52:00,
2013-09-29 20:11:00,63.0,62.0,30.02,South,170,0.0,0.0,98,0.00,,,0.71,,2013-09-30 01:11:00,
2013-09-29 20:22:00,63.0,62.0,30.02,SSW,197,0.0,0.0,98,0.00,,,0.71,,2013-09-30 01:22:00,
2013-09-29 20:42:00,63.0,62.0,30.02,SSW,198,0.0,0.0,98,0.00,,,0.71,,2013-09-30 01:42:00,
2013-09-29 20:52:00,63.0,62.0,30.02,SSW,192,0.0,0.0,98,0.00,,,0.71,,2013-09-30 01:52:00,
2013-09-29 21:12:00,63.0,62.0,30.02,South,188,0.0,0.0,98,0.00,,,0.71,,2013-09-30 02:12:00,
2013-09-29 21:22:00,63.0,62.0,30.02,South,170,0.0,0.0,98,0.00,,,0.71,,2013-09-30 02:22:00,
2013-09-29 21:42:00,63.0,62.0,30.02,SSE,155,0.0,6.0,98,0.00,,,0.71,,2013-09-30 02:42:00,
2013-09-29 21:52:00,63.0,62.0,30.02,South,183,0.0,0.0,98,0.00,,,0.71,,2013-09-30 02:52:00,
2013-09-29 22:12:00,63.0,62.0,30.02,SSW,202,0.0,0.0,98,0.00,,,0.71,,2013-09-30 03:12:00,
2013-09-29 22:22:00,63.0,62.0,30.02,SSW,200,0.0,0.0,98,0.00,,,0.71,,2013-09-30 03:22:00,
2013-09-29 22:44:00,63.0,63.0,30.02,SSW,209,0.0,0.0,99,0.00,,,0.71,,2013-09-30 03:44:00,
2013-09-29 22:55:00,63.0,63.0,30.01,South,187,0.0,0.0,99,0.00,,,0.71,,2013-09-30 03:55:00,
2013-09-29 23:14:00,63.0,63.0,30.01,SW,215,0.0,0.0,99,0.00,,,0.71,,2013-09-30 04:14:00,
2013-09-29 23:25:00,62.0,62.0,30.01,SSW,205,0.0,0.0,99,0.00,,,0.71,,2013-09-30 04:25:00,
2013-09-29 23:33:00,62.0,62.0,30.01,SSW,205,0.0,0.0,99,0.00,,,0.71,,2013-09-30 04:33:00,
2013-09-29 23:44:00,62.0,62.0,30.01,SSW,205,0.0,0.0,99,0.00,,,0.71,,2013-09-30 04:44:00,
2013-09-29 23:53:00,62.0,62.0,30.02,SSW,208,0.0,4.0,99,0.00,,,0.71,,2013-09-30 04:53:00,